Time,TemperatureF,DewpointF,PressureIn,WindDirection,WindDirectionDegrees,WindSpeedMPH,WindSpeedGustMPH,Humidity,HourlyPrecipIn,Conditions,Clouds,dailyrainin,SoftwareType,DateUTC
2013-04-21 00:00:00,41.4,38.4,30.29,SSW,203,0.0,0.0,89,0.00,,,0.00,Wunderground v.1.15,2013-04-21 04:00:00,
2013-04-21 00:05:00,41.4,38.7,30.29,SSW,203,0.0,0.0,90,0.00,,,0.00,Wunderground v.1.15,2013-04-21 04:05:00,
2013-04-21 00:10:00,41.3,38.6,30.29,SSW,203,0.0,0.0,90,0.00,,,0.00,Wunderground v.1.15,2013-04-21 04:10:00,
2013-04-21 00:15:00,41.3,38.9,30.30,SSW,203,0.0,0.0,91,0.00,,,0.00,Wunderground v.1.15,2013-04-21 04:15:00,
2013-04-21 00:20:00,41.4,39.0,30.30,SSW,203,0.0,0.0,91,0.00,,,0.00,Wunderground v.1.15,2013-04-21 04:20:00,
2013-04-21 00:30:00,41.4,39.3,30.30,SSW,203,0.0,0.0,92,0.00,,,0.00,Wunderground v.1.15,2013-04-21 04:30:00,
2013-04-21 00:35:00,41.5,39.3,30.30,SSW,203,0.0,0.0,92,0.00,,,0.00,Wunderground v.1.15,2013-04-21 04:35:00,
2013-04-21 00:40:00,41.6,39.7,30.30,SSW,203,0.0,0.0,93,0.00,,,0.00,Wunderground v.1.15,2013-04-21 04:40:00,
2013-04-21 00:45:00,41.6,39.7,30.30,SSW,203,0.0,0.0,93,0.00,,,0.00,Wunderground v.1.15,2013-04-21 04:45:00,
2013-04-21 00:50:00,41.7,39.8,30.30,SSW,203,0.0,0.0,93,0.00,,,0.00,Wunderground v.1.15,2013-04-21 04:50:00,
2013-04-21 01:00:00,41.6,39.7,30.30,SSW,203,0.0,0.0,93,0.00,,,0.00,Wunderground v.1.15,2013-04-21 05:00:00,
2013-04-21 01:05:00,41.5,39.6,30.30,SSW,203,0.0,0.0,93,0.00,,,0.00,Wunderground v.1.15,2013-04-21 05:05:00,
2013-04-21 01:10:00,41.3,39.2,30.30,SSW,203,0.0,0.0,92,0.00,,,0.00,Wunderground v.1.15,2013-04-21 05:10:00,
2013-04-21 01:15:00,41.2,39.1,30.30,SSW,203,0.0,0.0,92,0.00,,,0.00,Wunderground v.1.15,2013-04-21 05:15:00,
2013-04-21 01:20:00,41.1,39.2,30.30,SSW,203,0.0,0.0,93,0.00,,,0.00,Wunderground v.1.15,2013-04-21 05:20:00,
2013-04-21 01:25:00,41.0,39.1,30.30,SSW,203,0.0,0.0,93,0.00,,,0.00,Wunderground v.1.15,2013-04-21 05:25:00,
2013-04-21 01:30:00,40.9,39.0,30.31,SSW,203,0.0,0.0,93,0.00,,,0.00,Wunderground v.1.15,2013-04-21 05:30:00,
2013-04-21 01:35:00,40.9,39.0,30.31,SSW,203,0.0,0.0,93,0.00,,,0.00,Wunderground v.1.15,2013-04-21 05:35:00,
2013-04-21 01:40:00,40.8,38.9,30.31,SSW,203,0.0,0.0,93,0.00,,,0.00,Wunderground v.1.15,2013-04-21 05:40:00,
2013-04-21 01:45:00,40.8,38.9,30.31,SSW,203,0.0,0.0,93,0.00,,,0.00,Wunderground v.1.15,2013-04-21 05:45:00,
2013-04-21 01:50:00,40.7,39.1,30.31,SSW,203,0.0,0.0,94,0.00,,,0.00,Wunderground v.1.15,2013-04-21 05:50:00,
2013-04-21 01:55:00,40.6,38.7,30.32,SSW,203,0.0,0.0,93,0.00,,,0.00,Wunderground v.1.15,2013-04-21 05:55:00,
2013-04-21 02:00:00,40.4,38.5,30.31,SSW,203,0.0,0.0,93,0.00,,,0.00,Wunderground v.1.15,2013-04-21 06:00:00,
2013-04-21 02:05:00,40.2,38.3,30.32,SSW,203,0.0,0.0,93,0.00,,,0.00,Wunderground v.1.15,2013-04-21 06:05:00,
2013-04-21 02:10:00,40.0,38.1,30.32,SSW,203,0.0,0.0,93,0.00,,,0.00,Wunderground v.1.15,2013-04-21 06:10:00,
2013-04-21 02:15:00,39.8,37.9,30.32,SSW,203,0.0,0.0,93,0.00,,,0.00,Wunderground v.1.15,2013-04-21 06:15:00,
2013-04-21 02:20:00,39.7,37.8,30.32,SSW,203,0.0,0.0,93,0.00,,,0.00,Wunderground v.1.15,2013-04-21 06:20:00,
2013-04-21 02:25:00,39.6,37.7,30.32,SSW,203,0.0,0.0,93,0.00,,,0.00,Wunderground v.1.15,2013-04-21 06:25:00,
2013-04-21 02:30:00,39.4,37.5,30.32,SSW,203,0.0,0.0,93,0.00,,,0.00,Wunderground v.1.15,2013-04-21 06:30:00,
2013-04-21 02:40:00,39.3,37.4,30.32,SSW,203,0.0,0.0,93,0.00,,,0.00,Wunderground v.1.15,2013-04-21 06:40:00,
2013-04-21 02:45:00,39.2,37.6,30.32,SSW,203,0.0,0.0,94,0.00,,,0.00,Wunderground v.1.15,2013-04-21 06:45:00,
2013-04-21 02:50:00,39.2,37.6,30.32,SSW,203,0.0,0.0,94,0.00,,,0.00,Wunderground v.1.15,2013-04-21 06:50:00,
2013-04-21 02:55:00,39.1,37.5,30.33,SSW,203,0.0,0.0,94,0.00,,,0.00,Wunderground v.1.15,2013-04-21 06:55:00,
2013-04-21 03:00:00,38.9,37.0,30.33,SSW,203,0.0,0.0,93,0.00,,,0.00,Wunderground v.1.15,2013-04-21 07:00:00,
2013-04-21 03:05:00,38.8,37.2,30.33,SSW,203,0.0,0.0,94,0.00,,,0.00,Wunderground v.1.15,2013-04-21 07:05:00,
2013-04-21 03:10:00,38.8,37.2,30.33,SSW,203,0.0,0.0,94,0.00,,,0.00,Wunderground v.1.15,2013-04-21 07:10:00,
2013-04-21 03:15:00,38.7,37.1,30.33,SSW,203,0.0,0.0,94,0.00,,,0.00,Wunderground v.1.15,2013-04-21 07:15:00,
2013-04-21 03:20:00,38.7,37.1,30.33,SSW,203,0.0,0.0,94,0.00,,,0.00,Wunderground v.1.15,2013-04-21 07:20:00,
2013-04-21 03:25:00,38.7,37.1,30.33,SSW,203,0.0,0.0,94,0.00,,,0.00,Wunderground v.1.15,2013-04-21 07:25:00,
2013-04-21 03:30:00,38.7,37.1,30.34,SSW,203,0.0,0.0,94,0.00,,,0.00,Wunderground v.1.15,2013-04-21 07:30:00,
2013-04-21 03:40:00,38.6,37.0,30.34,SSW,203,0.0,0.0,94,0.00,,,0.00,Wunderground v.1.15,2013-04-21 07:40:00,
2013-04-21 03:45:00,38.6,37.0,30.34,SSW,203,0.0,0.0,94,0.00,,,0.00,Wunderground v.1.15,2013-04-21 07:45:00,
2013-04-21 03:50:00,38.5,36.9,30.34,SSW,203,0.0,0.0,94,0.00,,,0.00,Wunderground v.1.15,2013-04-21 07:50:00,
2013-04-21 03:55:00,38.5,36.9,30.34,SSW,203,0.0,0.0,94,0.00,,,0.00,Wunderground v.1.15,2013-04-21 07:55:00,
2013-04-21 04:00:00,38.4,36.8,30.35,SSW,203,0.0,0.0,94,0.00,,,0.00,Wunderground v.1.15,2013-04-21 08:00:00,
2013-04-21 04:05:00,38.4,36.8,30.35,SSW,203,0.0,0.0,94,0.00,,,0.00,Wunderground v.1.15,2013-04-21 08:05:00,
2013-04-21 04:10:00,38.2,36.6,30.35,SSW,203,0.0,0.0,94,0.00,,,0.00,Wunderground v.1.15,2013-04-21 08:10:00,
2013-04-21 04:15:00,38.2,36.6,30.35,SSW,203,0.0,0.0,94,0.00,,,0.00,Wunderground v.1.15,2013-04-21 08:15:00,
2013-04-21 04:20:00,38.1,36.5,30.35,SSW,203,0.0,0.0,94,0.00,,,0.00,Wunderground v.1.15,2013-04-21 08:20:00,
2013-04-21 04:25:00,38.0,36.4,30.35,SSW,203,0.0,0.0,94,0.00,,,0.00,Wunderground v.1.15,2013-04-21 08:25:00,
2013-04-21 04:30:00,38.0,36.4,30.35,SSW,203,0.0,0.0,94,0.00,,,0.00,Wunderground v.1.15,2013-04-21 08:30:00,
2013-04-21 04:35:00,38.1,36.5,30.36,SSW,203,0.0,0.0,94,0.00,,,0.00,Wunderground v.1.15,2013-04-21 08:35:00,
2013-04-21 04:40:00,38.1,36.5,30.36,SSW,203,0.0,0.0,94,0.00,,,0.00,Wunderground v.1.15,2013-04-21 08:40:00,
2013-04-21 04:45:00,38.2,36.6,30.36,SSW,203,0.0,0.0,94,0.00,,,0.00,Wunderground v.1.15,2013-04-21 08:45:00,
2013-04-21 04:50:00,38.3,36.7,30.37,SSW,203,0.0,0.0,94,0.00,,,0.00,Wunderground v.1.15,2013-04-21 08:50:00,
2013-04-21 04:55:00,38.5,36.9,30.37,North,5,0.0,0.0,94,0.00,,,0.00,Wunderground v.1.15,2013-04-21 08:55:00,
2013-04-21 05:00:00,38.7,36.9,30.37,NNW,346,0.0,0.0,93,0.00,,,0.00,Wunderground v.1.15,2013-04-21 09:00:00,
2013-04-21 05:05:00,39.0,36.6,30.38,North,355,0.0,0.0,91,0.00,,,0.00,Wunderground v.1.15,2013-04-21 09:05:00,
2013-04-21 05:10:00,39.5,36.5,30.38,North,355,0.0,0.0,89,0.00,,,0.00,Wunderground v.1.15,2013-04-21 09:10:00,
2013-04-21 05:15:00,40.0,36.4,30.38,NNE,23,0.0,0.0,87,0.00,,,0.00,Wunderground v.1.15,2013-04-21 09:15:00,
2013-04-21 05:20:00,40.6,36.1,30.38,North,355,0.0,1.0,84,0.00,,,0.00,Wunderground v.1.15,2013-04-21 09:20:00,
2013-04-21 05:25:00,41.3,36.2,30.38,NNE,24,0.0,1.0,82,0.00,,,0.00,Wunderground v.1.15,2013-04-21 09:25:00,
2013-04-21 05:30:00,41.8,35.8,30.38,West,278,0.0,0.0,79,0.00,,,0.00,Wunderground v.1.15,2013-04-21 09:30:00,
2013-04-21 05:35:00,42.2,35.8,30.38,North,11,0.0,3.0,78,0.00,,,0.00,Wunderground v.1.15,2013-04-21 09:35:00,
2013-04-21 05:40:00,42.6,35.9,30.38,NNE,15,1.0,1.0,77,0.00,,,0.00,Wunderground v.1.15,2013-04-21 09:40:00,
2013-04-21 05:45:00,42.8,35.1,30.39,NE,50,1.0,1.0,74,0.00,,,0.00,Wunderground v.1.15,2013-04-21 09:45:00,
2013-04-21 05:50:00,43.1,35.0,30.39,SSE,147,1.0,1.0,73,0.00,,,0.00,Wunderground v.1.15,2013-04-21 09:50:00,
2013-04-21 05:55:00,43.3,34.9,30.39,ENE,67,1.0,1.0,72,0.00,,,0.00,Wunderground v.1.15,2013-04-21 09:55:00,
2013-04-21 06:00:00,43.4,34.6,30.40,NNE,15,1.0,1.0,71,0.00,,,0.00,Wunderground v.1.15,2013-04-21 10:00:00,
2013-04-21 06:10:00,43.4,34.3,30.40,ENE,78,0.0,0.0,70,0.00,,,0.00,Wunderground v.1.15,2013-04-21 10:10:00,
2013-04-21 06:15:00,43.4,34.3,30.40,WNW,302,0.0,0.0,70,0.00,,,0.00,Wunderground v.1.15,2013-04-21 10:15:00,
2013-04-21 06:20:00,43.3,34.2,30.41,NNE,27,1.0,1.0,70,0.00,,,0.00,Wunderground v.1.15,2013-04-21 10:20:00,
2013-04-21 06:25:00,43.4,33.9,30.41,North,9,0.0,2.0,69,0.00,,,0.00,Wunderground v.1.15,2013-04-21 10:25:00,
2013-04-21 06:30:00,43.5,34.0,30.41,NNE,30,1.0,1.0,69,0.00,,,0.00,Wunderground v.1.15,2013-04-21 10:30:00,
2013-04-21 06:35:00,43.6,34.1,30.42,NE,49,2.0,2.0,69,0.00,,,0.00,Wunderground v.1.15,2013-04-21 10:35:00,
2013-04-21 06:40:00,43.6,34.1,30.42,NNE,13,1.0,1.0,69,0.00,,,0.00,Wunderground v.1.15,2013-04-21 10:40:00,
2013-04-21 06:45:00,43.4,33.5,30.42,NNE,21,0.0,1.0,68,0.00,,,0.00,Wunderground v.1.15,2013-04-21 10:45:00,
2013-04-21 06:50:00,43.4,33.5,30.42,East,82,1.0,1.0,68,0.00,,,0.00,Wunderground v.1.15,2013-04-21 10:50:00,
2013-04-21 07:00:00,43.2,34.1,30.43,North,360,0.0,0.0,70,0.00,,,0.00,Wunderground v.1.15,2013-04-21 11:00:00,
2013-04-21 07:10:00,43.1,33.3,30.44,NNW,334,1.0,1.0,68,0.00,,,0.00,Wunderground v.1.15,2013-04-21 11:10:00,
2013-04-21 07:15:00,43.1,33.3,30.44,NNE,24,1.0,1.0,68,0.00,,,0.00,Wunderground v.1.15,2013-04-21 11:15:00,
2013-04-21 07:20:00,43.3,33.8,30.45,ENE,59,0.0,3.0,69,0.00,,,0.00,Wunderground v.1.15,2013-04-21 11:20:00,
2013-04-21 07:25:00,43.5,33.6,30.45,ENE,69,1.0,4.0,68,0.00,,,0.00,Wunderground v.1.15,2013-04-21 11:25:00,
2013-04-21 07:30:00,43.7,33.5,30.45,SW,229,1.0,1.0,67,0.00,,,0.00,Wunderground v.1.15,2013-04-21 11:30:00,
2013-04-21 07:35:00,44.0,33.7,30.46,NNE,26,1.0,1.0,67,0.00,,,0.00,Wunderground v.1.15,2013-04-21 11:35:00,
2013-04-21 07:40:00,44.2,33.6,30.46,NE,34,1.0,1.0,66,0.00,,,0.00,Wunderground v.1.15,2013-04-21 11:40:00,
2013-04-21 07:45:00,44.5,33.5,30.46,NE,36,1.0,1.0,65,0.00,,,0.00,Wunderground v.1.15,2013-04-21 11:45:00,
2013-04-21 07:50:00,44.7,33.3,30.47,NNE,27,1.0,1.0,64,0.00,,,0.00,Wunderground v.1.15,2013-04-21 11:50:00,
2013-04-21 07:55:00,44.9,33.5,30.47,NE,47,3.0,3.0,64,0.00,,,0.00,Wunderground v.1.15,2013-04-21 11:55:00,
2013-04-21 08:00:00,45.2,33.7,30.47,WNW,284,3.0,3.0,64,0.00,,,0.00,Wunderground v.1.15,2013-04-21 12:00:00,
2013-04-21 08:05:00,45.5,33.2,30.47,NE,43,3.0,3.0,62,0.00,,,0.00,Wunderground v.1.15,2013-04-21 12:05:00,
2013-04-21 08:10:00,45.9,33.6,30.47,WNW,296,3.0,3.0,62,0.00,,,0.00,Wunderground v.1.15,2013-04-21 12:10:00,
2013-04-21 08:15:00,46.1,33.4,30.48,ENE,69,3.0,5.0,61,0.00,,,0.00,Wunderground v.1.15,2013-04-21 12:15:00,
2013-04-21 08:20:00,46.1,33.0,30.47,East,90,3.0,5.0,60,0.00,,,0.00,Wunderground v.1.15,2013-04-21 12:20:00,
2013-04-21 08:25:00,46.1,33.4,30.48,WNW,300,3.0,5.0,61,0.00,,,0.00,Wunderground v.1.15,2013-04-21 12:25:00,
2013-04-21 08:30:00,46.2,33.5,30.48,ENE,70,3.0,3.0,61,0.00,,,0.00,Wunderground v.1.15,2013-04-21 12:30:00,
2013-04-21 08:35:00,46.3,33.6,30.48,NE,42,2.0,3.0,61,0.00,,,0.00,Wunderground v.1.15,2013-04-21 12:35:00,
2013-04-21 08:40:00,46.5,33.8,30.48,NNW,336,1.0,4.0,61,0.00,,,0.00,Wunderground v.1.15,2013-04-21 12:40:00,
2013-04-21 08:45:00,46.4,33.7,30.49,NNE,32,2.0,4.0,61,0.00,,,0.00,Wunderground v.1.15,2013-04-21 12:45:00,
2013-04-21 08:50:00,46.5,33.8,30.49,NNW,331,2.0,2.0,61,0.00,,,0.00,Wunderground v.1.15,2013-04-21 12:50:00,
2013-04-21 08:55:00,46.8,34.0,30.49,NE,37,1.0,8.0,61,0.00,,,0.00,Wunderground v.1.15,2013-04-21 12:55:00,
2013-04-21 09:00:00,47.0,33.8,30.49,NNE,17,2.0,2.0,60,0.00,,,0.00,Wunderground v.1.15,2013-04-21 13:00:00,
2013-04-21 09:10:00,47.2,33.6,30.50,WNW,298,2.0,2.0,59,0.00,,,0.00,Wunderground v.1.15,2013-04-21 13:10:00,
2013-04-21 09:15:00,47.5,33.9,30.49,NNW,339,4.0,4.0,59,0.00,,,0.00,Wunderground v.1.15,2013-04-21 13:15:00,
2013-04-21 09:20:00,47.9,34.3,30.50,ENE,78,3.0,3.0,59,0.00,,,0.00,Wunderground v.1.15,2013-04-21 13:20:00,
2013-04-21 09:25:00,48.3,33.8,30.50,NNW,327,3.0,3.0,57,0.00,,,0.00,Wunderground v.1.15,2013-04-21 13:25:00,
2013-04-21 09:30:00,48.6,33.6,30.50,NNW,342,5.0,5.0,56,0.00,,,0.00,Wunderground v.1.15,2013-04-21 13:30:00,
2013-04-21 09:35:00,49.1,34.1,30.50,NE,50,4.0,5.0,56,0.00,,,0.00,Wunderground v.1.15,2013-04-21 13:35:00,
2013-04-21 09:40:00,49.7,34.6,30.50,NW,326,2.0,2.0,56,0.00,,,0.00,Wunderground v.1.15,2013-04-21 13:40:00,
2013-04-21 09:45:00,50.1,34.5,30.51,ENE,75,2.0,2.0,55,0.00,,,0.00,Wunderground v.1.15,2013-04-21 13:45:00,
2013-04-21 09:50:00,50.0,34.5,30.51,East,87,3.0,5.0,55,0.00,,,0.00,Wunderground v.1.15,2013-04-21 13:50:00,
2013-04-21 10:00:00,50.5,34.0,30.51,NE,51,5.0,5.0,53,0.00,,,0.00,Wunderground v.1.15,2013-04-21 14:00:00,
2013-04-21 10:05:00,50.9,34.4,30.51,ENE,74,5.0,5.0,53,0.00,,,0.00,Wunderground v.1.15,2013-04-21 14:05:00,
2013-04-21 10:10:00,51.2,35.1,30.51,NNW,333,4.0,4.0,54,0.00,,,0.00,Wunderground v.1.15,2013-04-21 14:10:00,
2013-04-21 10:15:00,51.3,34.3,30.51,NNE,13,4.0,5.0,52,0.00,,,0.00,Wunderground v.1.15,2013-04-21 14:15:00,
2013-04-21 10:20:00,51.6,34.5,30.51,NW,310,4.0,5.0,52,0.00,,,0.00,Wunderground v.1.15,2013-04-21 14:20:00,
2013-04-21 10:25:00,51.7,34.1,30.51,North,355,3.0,6.0,51,0.00,,,0.00,Wunderground v.1.15,2013-04-21 14:25:00,
2013-04-21 10:30:00,51.7,35.1,30.52,West,260,3.0,3.0,53,0.00,,,0.00,Wunderground v.1.15,2013-04-21 14:30:00,
2013-04-21 10:35:00,51.6,34.0,30.52,NE,41,3.0,4.0,51,0.00,,,0.00,Wunderground v.1.15,2013-04-21 14:35:00,
2013-04-21 10:40:00,51.6,35.0,30.52,NNW,342,3.0,7.0,53,0.00,,,0.00,Wunderground v.1.15,2013-04-21 14:40:00,
2013-04-21 10:45:00,52.1,35.5,30.52,ESE,117,2.0,7.0,53,0.00,,,0.00,Wunderground v.1.15,2013-04-21 14:45:00,
2013-04-21 10:50:00,53.0,34.8,30.52,East,81,2.0,6.0,50,0.00,,,0.00,Wunderground v.1.15,2013-04-21 14:50:00,
2013-04-21 11:00:00,54.0,34.2,30.52,NE,46,2.0,5.0,47,0.00,,,0.00,Wunderground v.1.15,2013-04-21 15:00:00,
2013-04-21 11:05:00,53.4,34.2,30.52,NE,42,3.0,7.0,48,0.00,,,0.00,Wunderground v.1.15,2013-04-21 15:05:00,
2013-04-21 11:10:00,53.3,34.1,30.52,ENE,69,4.0,4.0,48,0.00,,,0.00,Wunderground v.1.15,2013-04-21 15:10:00,
2013-04-21 11:15:00,53.8,34.0,30.52,NNW,337,3.0,5.0,47,0.00,,,0.00,Wunderground v.1.15,2013-04-21 15:15:00,
2013-04-21 11:20:00,53.2,32.9,30.52,ENE,61,4.0,4.0,46,0.00,,,0.00,Wunderground v.1.15,2013-04-21 15:20:00,
2013-04-21 11:25:00,53.2,34.0,30.52,NE,48,4.0,4.0,48,0.00,,,0.00,Wunderground v.1.15,2013-04-21 15:25:00,
2013-04-21 11:30:00,53.2,32.9,30.52,North,9,3.0,3.0,46,0.00,,,0.00,Wunderground v.1.15,2013-04-21 15:30:00,
2013-04-21 11:35:00,53.6,33.3,30.52,NE,56,2.0,5.0,46,0.00,,,0.00,Wunderground v.1.15,2013-04-21 15:35:00,
2013-04-21 11:40:00,53.8,33.5,30.52,North,360,3.0,4.0,46,0.00,,,0.00,Wunderground v.1.15,2013-04-21 15:40:00,
2013-04-21 11:45:00,54.2,34.9,30.52,NW,306,2.0,4.0,48,0.00,,,0.00,Wunderground v.1.15,2013-04-21 15:45:00,
2013-04-21 11:50:00,54.2,33.3,30.52,NE,38,3.0,9.0,45,0.00,,,0.00,Wunderground v.1.15,2013-04-21 15:50:00,
2013-04-21 11:55:00,53.9,34.1,30.52,East,82,3.0,9.0,47,0.00,,,0.00,Wunderground v.1.15,2013-04-21 15:55:00,
2013-04-21 12:00:00,54.4,34.6,30.52,NNE,17,3.0,9.0,47,0.00,,,0.00,Wunderground v.1.15,2013-04-21 16:00:00,
2013-04-21 12:05:00,54.8,34.9,30.52,North,5,3.0,9.0,47,0.00,,,0.00,Wunderground v.1.15,2013-04-21 16:05:00,
2013-04-21 12:10:00,55.7,34.1,30.52,East,90,2.0,5.0,44,0.00,,,0.00,Wunderground v.1.15,2013-04-21 16:10:00,
2013-04-21 12:20:00,55.5,35.0,30.52,East,87,3.0,3.0,46,0.00,,,0.00,Wunderground v.1.15,2013-04-21 16:20:00,
2013-04-21 12:30:00,56.2,34.6,30.51,NE,35,3.0,3.0,44,0.00,,,0.00,Wunderground v.1.15,2013-04-21 16:30:00,
2013-04-21 12:35:00,55.7,33.5,30.51,NNW,340,4.0,4.0,43,0.00,,,0.00,Wunderground v.1.15,2013-04-21 16:35:00,
2013-04-21 12:40:00,55.9,35.4,30.50,ENE,74,3.0,3.0,46,0.00,,,0.00,Wunderground v.1.15,2013-04-21 16:40:00,
2013-04-21 12:45:00,56.6,34.9,30.50,NE,55,2.0,3.0,44,0.00,,,0.00,Wunderground v.1.15,2013-04-21 16:45:00,
2013-04-21 12:50:00,56.5,35.4,30.50,ENE,65,2.0,2.0,45,0.00,,,0.00,Wunderground v.1.15,2013-04-21 16:50:00,
2013-04-21 12:55:00,56.8,35.1,30.50,ESE,112,1.0,2.0,44,0.00,,,0.00,Wunderground v.1.15,2013-04-21 16:55:00,
2013-04-21 13:00:00,57.6,35.8,30.50,ENE,76,1.0,1.0,44,0.00,,,0.00,Wunderground v.1.15,2013-04-21 17:00:00,
2013-04-21 13:05:00,57.6,34.7,30.50,ENE,71,2.0,5.0,42,0.00,,,0.00,Wunderground v.1.15,2013-04-21 17:05:00,
2013-04-21 13:10:00,57.3,35.0,30.49,NNW,333,3.0,3.0,43,0.00,,,0.00,Wunderground v.1.15,2013-04-21 17:10:00,
2013-04-21 13:15:00,57.6,34.7,30.49,SE,133,3.0,3.0,42,0.00,,,0.00,Wunderground v.1.15,2013-04-21 17:15:00,
2013-04-21 13:20:00,57.9,36.1,30.50,SSE,153,3.0,6.0,44,0.00,,,0.00,Wunderground v.1.15,2013-04-21 17:20:00,
2013-04-21 13:25:00,58.6,35.6,30.50,NNE,18,2.0,6.0,42,0.00,,,0.00,Wunderground v.1.15,2013-04-21 17:25:00,
2013-04-21 13:30:00,58.9,36.4,30.49,WSW,242,1.0,1.0,43,0.00,,,0.00,Wunderground v.1.15,2013-04-21 17:30:00,
2013-04-21 13:35:00,59.1,36.0,30.49,NE,41,1.0,1.0,42,0.00,,,0.00,Wunderground v.1.15,2013-04-21 17:35:00,
2013-04-21 13:40:00,59.1,36.0,30.48,ENE,74,2.0,8.0,42,0.00,,,0.00,Wunderground v.1.15,2013-04-21 17:40:00,
2013-04-21 13:45:00,58.4,36.0,30.48,NE,38,2.0,8.0,43,0.00,,,0.00,Wunderground v.1.15,2013-04-21 17:45:00,
2013-04-21 13:50:00,58.1,35.7,30.48,NNE,20,3.0,3.0,43,0.00,,,0.00,Wunderground v.1.15,2013-04-21 17:50:00,
2013-04-21 13:55:00,58.5,36.6,30.48,NNE,13,3.0,6.0,44,0.00,,,0.00,Wunderground v.1.15,2013-04-21 17:55:00,
2013-04-21 14:00:00,58.9,36.4,30.48,NE,49,2.0,2.0,43,0.00,,,0.00,Wunderground v.1.15,2013-04-21 18:00:00,
2013-04-21 14:05:00,59.2,36.1,30.48,NNE,28,2.0,5.0,42,0.00,,,0.00,Wunderground v.1.15,2013-04-21 18:05:00,
2013-04-21 14:10:00,58.7,36.8,30.48,East,84,3.0,3.0,44,0.00,,,0.00,Wunderground v.1.15,2013-04-21 18:10:00,
2013-04-21 14:20:00,59.3,36.8,30.48,ENE,76,2.0,2.0,43,0.00,,,0.00,Wunderground v.1.15,2013-04-21 18:20:00,
2013-04-21 14:30:00,59.5,37.0,30.47,WNW,284,2.0,5.0,43,0.00,,,0.00,Wunderground v.1.15,2013-04-21 18:30:00,
2013-04-21 14:35:00,59.6,38.8,30.47,NNE,28,2.0,5.0,46,0.00,,,0.00,Wunderground v.1.15,2013-04-21 18:35:00,
2013-04-21 14:40:00,59.9,37.3,30.47,East,80,2.0,2.0,43,0.00,,,0.00,Wunderground v.1.15,2013-04-21 18:40:00,
2013-04-21 14:45:00,60.2,37.0,30.47,ENE,70,2.0,3.0,42,0.00,,,0.00,Wunderground v.1.15,2013-04-21 18:45:00,
2013-04-21 14:50:00,60.2,37.6,30.47,ENE,69,2.0,3.0,43,0.00,,,0.00,Wunderground v.1.15,2013-04-21 18:50:00,
2013-04-21 14:55:00,60.2,38.8,30.47,East,86,1.0,3.0,45,0.00,,,0.00,Wunderground v.1.15,2013-04-21 18:55:00,
2013-04-21 15:00:00,59.9,36.7,30.47,ENE,76,2.0,2.0,42,0.00,,,0.00,Wunderground v.1.15,2013-04-21 19:00:00,
2013-04-21 15:05:00,60.0,37.4,30.47,ENE,67,2.0,3.0,43,0.00,,,0.00,Wunderground v.1.15,2013-04-21 19:05:00,
2013-04-21 15:10:00,59.9,38.5,30.47,ENE,59,1.0,1.0,45,0.00,,,0.00,Wunderground v.1.15,2013-04-21 19:10:00,
2013-04-21 15:15:00,60.2,37.0,30.47,NNE,19,2.0,7.0,42,0.00,,,0.00,Wunderground v.1.15,2013-04-21 19:15:00,
2013-04-21 15:20:00,59.9,37.9,30.47,ENE,65,2.0,2.0,44,0.00,,,0.00,Wunderground v.1.15,2013-04-21 19:20:00,
2013-04-21 15:25:00,60.3,39.4,30.46,ENE,60,2.0,3.0,46,0.00,,,0.00,Wunderground v.1.15,2013-04-21 19:25:00,
2013-04-21 15:30:00,60.9,38.8,30.46,North,355,2.0,7.0,44,0.00,,,0.00,Wunderground v.1.15,2013-04-21 19:30:00,
2013-04-21 15:35:00,60.4,37.2,30.46,ENE,76,3.0,7.0,42,0.00,,,0.00,Wunderground v.1.15,2013-04-21 19:35:00,
2013-04-21 15:40:00,60.1,38.1,30.46,South,174,2.0,2.0,44,0.00,,,0.00,Wunderground v.1.15,2013-04-21 19:40:00,
2013-04-21 15:50:00,60.7,38.1,30.45,ENE,78,2.0,2.0,43,0.00,,,0.00,Wunderground v.1.15,2013-04-21 19:50:00,
2013-04-21 16:00:00,59.9,39.1,30.45,ENE,69,2.0,4.0,46,0.00,,,0.00,Wunderground v.1.15,2013-04-21 20:00:00,
2013-04-21 16:10:00,59.8,37.8,30.45,ENE,71,3.0,3.0,44,0.00,,,0.00,Wunderground v.1.15,2013-04-21 20:10:00,
2013-04-21 16:15:00,59.6,38.2,30.45,East,83,2.0,3.0,45,0.00,,,0.00,Wunderground v.1.15,2013-04-21 20:15:00,
2013-04-21 16:20:00,59.3,37.9,30.45,East,88,1.0,1.0,45,0.00,,,0.00,Wunderground v.1.15,2013-04-21 20:20:00,
2013-04-21 16:25:00,59.2,38.4,30.45,East,92,1.0,1.0,46,0.00,,,0.00,Wunderground v.1.15,2013-04-21 20:25:00,
2013-04-21 16:30:00,59.7,39.4,30.44,ENE,68,1.0,1.0,47,0.00,,,0.00,Wunderground v.1.15,2013-04-21 20:30:00,
2013-04-21 16:35:00,60.2,38.8,30.44,ENE,74,1.0,2.0,45,0.00,,,0.00,Wunderground v.1.15,2013-04-21 20:35:00,
2013-04-21 16:40:00,59.8,37.8,30.44,East,97,1.0,1.0,44,0.00,,,0.00,Wunderground v.1.15,2013-04-21 20:40:00,
2013-04-21 16:45:00,59.9,39.1,30.44,NE,52,1.0,3.0,46,0.00,,,0.00,Wunderground v.1.15,2013-04-21 20:45:00,
2013-04-21 16:50:00,60.2,38.2,30.44,SE,144,1.0,1.0,44,0.00,,,0.00,Wunderground v.1.15,2013-04-21 20:50:00,
2013-04-21 16:55:00,60.3,38.9,30.44,ENE,67,1.0,1.0,45,0.00,,,0.00,Wunderground v.1.15,2013-04-21 20:55:00,
2013-04-21 17:00:00,60.2,37.6,30.44,ESE,106,2.0,2.0,43,0.00,,,0.00,Wunderground v.1.15,2013-04-21 21:00:00,
2013-04-21 17:05:00,59.6,37.1,30.44,NE,49,2.0,3.0,43,0.00,,,0.00,Wunderground v.1.15,2013-04-21 21:05:00,
2013-04-21 17:10:00,59.4,38.0,30.44,ENE,78,1.0,1.0,45,0.00,,,0.00,Wunderground v.1.15,2013-04-21 21:10:00,
2013-04-21 17:15:00,59.6,38.2,30.44,ENE,65,1.0,2.0,45,0.00,,,0.00,Wunderground v.1.15,2013-04-21 21:15:00,
2013-04-21 17:20:00,59.6,38.8,30.44,NW,321,3.0,3.0,46,0.00,,,0.00,Wunderground v.1.15,2013-04-21 21:20:00,
2013-04-21 17:30:00,58.6,38.4,30.44,ENE,69,2.0,2.0,47,0.00,,,0.00,Wunderground v.1.15,2013-04-21 21:30:00,
2013-04-21 17:35:00,58.1,38.5,30.45,East,90,2.0,8.0,48,0.00,,,0.00,Wunderground v.1.15,2013-04-21 21:35:00,
2013-04-21 17:40:00,57.8,38.8,30.44,ENE,73,2.0,2.0,49,0.00,,,0.00,Wunderground v.1.15,2013-04-21 21:40:00,
2013-04-21 17:45:00,58.2,39.6,30.44,ENE,75,1.0,3.0,50,0.00,,,0.00,Wunderground v.1.15,2013-04-21 21:45:00,
2013-04-21 17:50:00,58.5,39.4,30.44,NE,36,1.0,4.0,49,0.00,,,0.00,Wunderground v.1.15,2013-04-21 21:50:00,
2013-04-21 17:55:00,58.6,39.0,30.44,ESE,110,2.0,4.0,48,0.00,,,0.00,Wunderground v.1.15,2013-04-21 21:55:00,
2013-04-21 18:00:00,58.8,39.1,30.44,NNE,18,3.0,7.0,48,0.00,,,0.00,Wunderground v.1.15,2013-04-21 22:00:00,
2013-04-21 18:05:00,58.4,39.3,30.45,NNW,344,2.0,7.0,49,0.00,,,0.00,Wunderground v.1.15,2013-04-21 22:05:00,
2013-04-21 18:10:00,58.0,38.9,30.44,ENE,59,1.0,3.0,49,0.00,,,0.00,Wunderground v.1.15,2013-04-21 22:10:00,
2013-04-21 18:15:00,57.6,39.1,30.45,ENE,73,1.0,3.0,50,0.00,,,0.00,Wunderground v.1.15,2013-04-21 22:15:00,
2013-04-21 18:20:00,57.5,39.5,30.44,ENE,78,1.0,4.0,51,0.00,,,0.00,Wunderground v.1.15,2013-04-21 22:20:00,
2013-04-21 18:25:00,57.5,39.5,30.44,East,88,1.0,4.0,51,0.00,,,0.00,Wunderground v.1.15,2013-04-21 22:25:00,
2013-04-21 18:30:00,57.6,39.1,30.45,NNE,30,1.0,1.0,50,0.00,,,0.00,Wunderground v.1.15,2013-04-21 22:30:00,
2013-04-21 18:40:00,56.9,38.9,30.44,NE,51,1.0,1.0,51,0.00,,,0.00,Wunderground v.1.15,2013-04-21 22:40:00,
2013-04-21 18:45:00,56.9,38.9,30.44,NE,46,1.0,1.0,51,0.00,,,0.00,Wunderground v.1.15,2013-04-21 22:45:00,
2013-04-21 18:50:00,56.9,39.4,30.44,North,360,0.0,1.0,52,0.00,,,0.00,Wunderground v.1.15,2013-04-21 22:50:00,
2013-04-21 18:55:00,56.8,38.9,30.44,ENE,77,1.0,2.0,51,0.00,,,0.00,Wunderground v.1.15,2013-04-21 22:55:00,
2013-04-21 19:00:00,56.7,38.3,30.44,ENE,71,1.0,1.0,50,0.00,,,0.00,Wunderground v.1.15,2013-04-21 23:00:00,
2013-04-21 19:05:00,56.6,38.2,30.44,ENE,65,1.0,1.0,50,0.00,,,0.00,Wunderground v.1.15,2013-04-21 23:05:00,
2013-04-21 19:10:00,56.4,38.5,30.45,East,88,1.0,1.0,51,0.00,,,0.00,Wunderground v.1.15,2013-04-21 23:10:00,
2013-04-21 19:20:00,56.0,39.1,30.44,NE,35,0.0,0.0,53,0.00,,,0.00,Wunderground v.1.15,2013-04-21 23:20:00,
2013-04-21 19:25:00,55.9,39.5,30.45,NE,34,0.0,0.0,54,0.00,,,0.00,Wunderground v.1.15,2013-04-21 23:25:00,
2013-04-21 19:30:00,55.6,38.7,30.45,NE,36,0.0,1.0,53,0.00,,,0.00,Wunderground v.1.15,2013-04-21 23:30:00,
2013-04-21 19:35:00,55.3,38.9,30.45,NE,56,0.0,1.0,54,0.00,,,0.00,Wunderground v.1.15,2013-04-21 23:35:00,
2013-04-21 19:40:00,55.1,39.2,30.45,ENE,63,0.0,0.0,55,0.00,,,0.00,Wunderground v.1.15,2013-04-21 23:40:00,
2013-04-21 19:45:00,54.8,39.4,30.45,ENE,63,0.0,0.0,56,0.00,,,0.00,Wunderground v.1.15,2013-04-21 23:45:00,
2013-04-21 19:50:00,54.5,40.0,30.45,ENE,63,0.0,0.0,58,0.00,,,0.00,Wunderground v.1.15,2013-04-21 23:50:00,
2013-04-21 19:55:00,54.2,40.2,30.45,ENE,63,0.0,0.0,59,0.00,,,0.00,Wunderground v.1.15,2013-04-21 23:55:00,
2013-04-21 20:00:00,53.9,40.3,30.45,ENE,63,0.0,0.0,60,0.00,,,0.00,Wunderground v.1.15,2013-04-22 00:00:00,
2013-04-21 20:10:00,53.1,40.8,30.46,ENE,63,0.0,0.0,63,0.00,,,0.00,Wunderground v.1.15,2013-04-22 00:10:00,
2013-04-21 20:15:00,52.6,41.2,30.46,ENE,63,0.0,0.0,65,0.00,,,0.00,Wunderground v.1.15,2013-04-22 00:15:00,
2013-04-21 20:20:00,52.1,40.3,30.46,ENE,63,0.0,0.0,64,0.00,,,0.00,Wunderground v.1.15,2013-04-22 00:20:00,
2013-04-21 20:25:00,51.6,40.6,30.46,ENE,63,0.0,0.0,66,0.00,,,0.00,Wunderground v.1.15,2013-04-22 00:25:00,
2013-04-21 20:30:00,51.2,40.6,30.47,ENE,63,0.0,0.0,67,0.00,,,0.00,Wunderground v.1.15,2013-04-22 00:30:00,
2013-04-21 20:35:00,50.8,41.0,30.47,ENE,63,0.0,0.0,69,0.00,,,0.00,Wunderground v.1.15,2013-04-22 00:35:00,
2013-04-21 20:40:00,50.4,41.0,30.47,ENE,63,0.0,0.0,70,0.00,,,0.00,Wunderground v.1.15,2013-04-22 00:40:00,
2013-04-21 20:50:00,49.5,40.5,30.48,ENE,63,0.0,0.0,71,0.00,,,0.00,Wunderground v.1.15,2013-04-22 00:50:00,
2013-04-21 20:55:00,49.2,40.6,30.48,ENE,63,0.0,0.0,72,0.00,,,0.00,Wunderground v.1.15,2013-04-22 00:55:00,
2013-04-21 21:00:00,48.8,40.9,30.48,ENE,63,0.0,0.0,74,0.00,,,0.00,Wunderground v.1.15,2013-04-22 01:00:00,
2013-04-21 21:05:00,48.5,40.9,30.48,ENE,63,0.0,0.0,75,0.00,,,0.00,Wunderground v.1.15,2013-04-22 01:05:00,
2013-04-21 21:10:00,48.1,40.5,30.49,ENE,63,0.0,0.0,75,0.00,,,0.00,Wunderground v.1.15,2013-04-22 01:10:00,
2013-04-21 21:15:00,47.8,40.6,30.49,ENE,63,0.0,0.0,76,0.00,,,0.00,Wunderground v.1.15,2013-04-22 01:15:00,
2013-04-21 21:20:00,47.5,40.6,30.49,ENE,63,0.0,0.0,77,0.00,,,0.00,Wunderground v.1.15,2013-04-22 01:20:00,
2013-04-21 21:25:00,47.3,40.5,30.49,ENE,63,0.0,0.0,77,0.00,,,0.00,Wunderground v.1.15,2013-04-22 01:25:00,
2013-04-21 21:30:00,47.1,40.6,30.50,ENE,63,0.0,0.0,78,0.00,,,0.00,Wunderground v.1.15,2013-04-22 01:30:00,
2013-04-21 21:40:00,46.9,40.4,30.50,ENE,63,0.0,0.0,78,0.00,,,0.00,Wunderground v.1.15,2013-04-22 01:40:00,
2013-04-21 21:45:00,46.9,40.4,30.50,ENE,63,0.0,0.0,78,0.00,,,0.00,Wunderground v.1.15,2013-04-22 01:45:00,
2013-04-21 21:50:00,47.0,40.8,30.50,NE,51,0.0,0.0,79,0.00,,,0.00,Wunderground v.1.15,2013-04-22 01:50:00,
2013-04-21 21:55:00,47.0,40.2,30.50,NE,51,0.0,0.0,77,0.00,,,0.00,Wunderground v.1.15,2013-04-22 01:55:00,
2013-04-21 22:00:00,47.0,39.8,30.50,NNE,27,0.0,0.0,76,0.00,,,0.00,Wunderground v.1.15,2013-04-22 02:00:00,
2013-04-21 22:05:00,47.0,40.2,30.50,NNE,27,0.0,0.0,77,0.00,,,0.00,Wunderground v.1.15,2013-04-22 02:05:00,
2013-04-21 22:10:00,47.0,40.2,30.50,NNE,27,0.0,0.0,77,0.00,,,0.00,Wunderground v.1.15,2013-04-22 02:10:00,
2013-04-21 22:15:00,46.9,40.1,30.50,NNE,27,0.0,0.0,77,0.00,,,0.00,Wunderground v.1.15,2013-04-22 02:15:00,
2013-04-21 22:20:00,46.7,39.5,30.50,NNE,28,0.0,0.0,76,0.00,,,0.00,Wunderground v.1.15,2013-04-22 02:20:00,
2013-04-21 22:25:00,46.9,39.7,30.50,ENE,61,0.0,0.0,76,0.00,,,0.00,Wunderground v.1.15,2013-04-22 02:25:00,
2013-04-21 22:30:00,46.9,40.1,30.50,ENE,61,0.0,0.0,77,0.00,,,0.00,Wunderground v.1.15,2013-04-22 02:30:00,
2013-04-21 22:35:00,46.9,39.4,30.50,ENE,59,0.0,0.0,75,0.00,,,0.00,Wunderground v.1.15,2013-04-22 02:35:00,
2013-04-21 22:40:00,47.0,39.5,30.50,NE,56,0.0,0.0,75,0.00,,,0.00,Wunderground v.1.15,2013-04-22 02:40:00,
2013-04-21 22:45:00,46.9,39.4,30.50,NE,56,0.0,0.0,75,0.00,,,0.00,Wunderground v.1.15,2013-04-22 02:45:00,
2013-04-21 22:50:00,46.9,39.0,30.50,NE,43,0.0,0.0,74,0.00,,,0.00,Wunderground v.1.15,2013-04-22 02:50:00,
2013-04-21 22:55:00,46.8,39.3,30.50,NE,45,0.0,0.0,75,0.00,,,0.00,Wunderground v.1.15,2013-04-22 02:55:00,
2013-04-21 23:00:00,46.7,38.9,30.50,NE,42,0.0,0.0,74,0.00,,,0.00,Wunderground v.1.15,2013-04-22 03:00:00,
2013-04-21 23:05:00,46.7,39.2,30.50,NE,42,0.0,0.0,75,0.00,,,0.00,Wunderground v.1.15,2013-04-22 03:05:00,
2013-04-21 23:10:00,46.5,39.0,30.50,NE,56,0.0,0.0,75,0.00,,,0.00,Wunderground v.1.15,2013-04-22 03:10:00,
2013-04-21 23:15:00,46.5,39.0,30.50,East,80,0.0,2.0,75,0.00,,,0.00,Wunderground v.1.15,2013-04-22 03:15:00,
2013-04-21 23:20:00,46.5,38.7,30.50,ENE,63,0.0,0.0,74,0.00,,,0.00,Wunderground v.1.15,2013-04-22 03:20:00,
2013-04-21 23:25:00,46.4,38.9,30.50,East,79,0.0,0.0,75,0.00,,,0.00,Wunderground v.1.15,2013-04-22 03:25:00,
2013-04-21 23:30:00,46.3,38.5,30.50,NNE,31,0.0,0.0,74,0.00,,,0.00,Wunderground v.1.15,2013-04-22 03:30:00,
2013-04-21 23:35:00,46.3,38.5,30.50,NNE,30,0.0,0.0,74,0.00,,,0.00,Wunderground v.1.15,2013-04-22 03:35:00,
2013-04-21 23:40:00,46.2,38.4,30.49,NE,36,0.0,0.0,74,0.00,,,0.00,Wunderground v.1.15,2013-04-22 03:40:00,
2013-04-21 23:45:00,46.0,38.2,30.49,NE,36,0.0,0.0,74,0.00,,,0.00,Wunderground v.1.15,2013-04-22 03:45:00,
2013-04-21 23:50:00,45.9,38.4,30.49,NNW,340,0.0,0.0,75,0.00,,,0.00,Wunderground v.1.15,2013-04-22 03:50:00,
2013-04-21 23:55:00,45.7,38.2,30.50,NE,34,0.0,0.0,75,0.00,,,0.00,Wunderground v.1.15,2013-04-22 03:55:00,